sat.trackr.live / text

‹ back to catalog

STARLINK-5658

NORAD 55338 · 2023-013H

PAYLOAD ACTIVE UNKNOWN

§ Identity

Operator
Country
US
Launch date
2023-01-26
Launch site
AFETR
Launch vehicle
Mass (kg)
RCS (m²)

Purposes: comms

External: N2YO · Heavens-Above · Gunter

§ Orbital elements

Epoch: 2026-09-20T10:24:28.315584Z

Period
94.27 min
Inclination
43.0032°
Eccentricity
0.0001105
Mean motion
15.27576244 rev/d
Perigee alt
482.3 km
Apogee alt
483.8 km
Semi-major
6,861.2 km
B*
2.6534e-7
RAAN
283.8866°
Arg perigee
286.7540°
Mean anomaly
73.3190°
Rev number
20,145

§ Raw data

STARLINK-56581 55338U 23013H   26263.43366106 -.00000255  00000+0  26534-6 0  99992 55338  43.0032 283.8866 0001105 286.7540  73.3190 15.27576244201456

JSON: /api/v1/satellites/55338 · /tle

For live sub-satellite position, see the globe view (requires WebGL).

§ Visibility from observer

Set your observer location to see the next 7 days of passes ≥ 10°. The values pass through the URL so the page stays shareable.

No JS? Fill the form by hand. The geolocation button needs JavaScript.